This demonstration page uses our WeatherBlox Daily Observations layout. Learn more.

Left ArrowRight Arrow

38.88101, -77.10428

Hourly Observations for December 13, 2015

Temp ( °F °C ) Dew Point ( °F °C ) Humidity (%) Winds ( mph kmh ) Pressure ( in mb ) Visibility ( mi km ) Precip ( " mm )
12:52 am 00:52 Mostly Cloudy 51 10.6 50 10 96 96 S 3 6 30.17 1022 8 13 N/A
1:52 am 01:52 Mostly Cloudy 54 12.2 52 11.1 93 93 SSW 3 6 30.17 1022 7 11 N/A
2:52 am 02:52 Mostly Cloudy 52 11.1 51 10.6 97 97 N N/A 30.17 1022 7 11 N/A
3:52 am 03:52 Mostly Cloudy 50 10 49 9.4 96 96 SSW 5 7 30.15 1021 7 11 N/A
4:52 am 04:52 Mostly Cloudy with Mist and Fog 50 10 49 9.4 96 96 N N/A 30.15 1021 5 8 N/A
5:52 am 05:52 Mostly Cloudy 51 10.6 50 10 96 96 N N/A 30.16 1021 7 11 N/A
6:14 am 06:14 Mostly Cloudy with Mist and Fog 48 9 48 9 100 100 N N/A 30.18 1022 6 10 N/A
6:52 am 06:52 Mostly Cloudy with Fog 49 9.4 49 9.4 100 100 N N/A 30.18 1022 6 10 N/A
7:52 am 07:52 Mostly Cloudy with Fog 50 10 48 8.9 93 93 S 6 9 30.18 1022 6 10 N/A
8:52 am 08:52 Mostly Cloudy with Mist and Fog 53 11.7 52 11.1 96 96 S 6 9 30.19 1022 5 8 N/A
9:52 am 09:52 Mostly Cloudy with Mist and Fog 54 12.2 53 11.7 97 97 S 7 11 30.20 1023 5 8 N/A
10:52 am 10:52 Mostly Cloudy 57 13.9 55 12.8 93 93 S 7 11 30.19 1022 7 11 N/A
11:52 am 11:52 Mostly Cloudy 60 15.6 55 12.8 84 84 S 7 11 30.17 1022 10 16 N/A
12:52 pm 12:52 Mostly Cloudy 65 18.3 57 13.9 76 76 SSW 5 7 30.14 1021 10 16 N/A
1:52 pm 13:52 Mostly Cloudy 69 20.6 57 13.9 66 66 S 3 6 30.11 1020 10 16 N/A
2:52 pm 14:52 Mostly Cloudy 71 21.7 56 13.3 59 59 S 6 9 30.10 1019 10 16 N/A
3:52 pm 15:52 Mostly Cloudy 66 18.9 55 12.8 68 68 S 9 15 30.10 1019 10 16 N/A
4:52 pm 16:52 Mostly Cloudy 62 16.7 54 12.2 75 75 S 8 13 30.09 1019 10 16 N/A
5:52 pm 17:52 Cloudy 59 15 54 12.2 83 83 SSW 8 13 30.09 1019 10 16 N/A
6:52 pm 18:52 Cloudy 59 15 54 12.2 83 83 SSW 7 11 30.09 1019 10 16 N/A
7:52 pm 19:52 Cloudy 60 15.6 55 12.8 84 84 S 8 13 30.09 1019 10 16 N/A
8:52 pm 20:52 Mostly Cloudy 59 15 55 12.8 87 87 S 7 11 30.08 1019 10 16 N/A
9:52 pm 21:52 Mostly Cloudy 60 15.6 56 13.3 86 86 SSW 5 7 30.07 1018 10 16 N/A
10:52 pm 22:52 Mostly Cloudy 59 15 56 13.3 90 90 SW 3 6 30.05 1018 10 16 N/A
11:52 pm 23:52 Mostly Cloudy 55 12.8 53 11.7 93 93 S 9 15 30.03 1017 10 16 N/A

Powered by AerisWeather